IRIDIUM 33 DEB, 34870

Orbit data source: Space-Track

IRIDIUM 33 DEB, 34870 is space debris in LEO originally from a launch on Sun, 14 Sep 1997 UTC launched from the Tyuratam Missile And Space Complex (TTMTR). The debris from Iridium 33, an American commercial communications satellite, has been tracked extensively since its accidental collision with the defunct Russian satellite Cosmos 2251 in 2009. This event, occurring at high speed in low Earth orbit (LEO), generated thousands of pieces of space debris, significantly increasing the risk of further collisions. The Iridium 33 debris cloud has impacted space traffic management and orbital debris mitigation strategies, making it a subject of ongoing study in space situational awareness.

Loading next visibility...
Identifier
34870, 1997-051MQ
Orbit
LEO
Country
Flag of USUS
Related business
Manufacturer
Unknown
Mission
Spacecraft
Bus & Motor
Unknown
Mass
Unknown
Launch date (UTC)
1997-09-14 (28 years ago)
Launch vehicle
Unknown
Launch site
Tyuratam Missile And Space Complex (TTMTR)
Object type
Payload
Rocket body
Debris
Shape & HBR
Unknown shape, 0.1 m
Radar Cross Section
Small (<0.1 m²)

Expand to show TLE details & history
Last TLE update: 4 days ago

TLE from 4 days ago
0 IRIDIUM 33 DEB
1 34870U 97051MQ  25351.65847441  .00007793  00000-0  11120-2 0  9992
2 34870  86.3102 311.8309 0016959 164.6796   8.9227 14.76525212889837
Epoch: 2025-12-17T15:48Z
TLE epoch observation values (Epoch: 2025-12-17T15:48:12.189Z)
Latitude
6.2725°
Longitude
167.85101°
Altitude
631.067 km
Speed
7.55 km/s
True Right ascension
08h 45m 42s
True Declination
6° 14' 05"
Sunlit
Object was in full shadow at epoch
Visualization orbit readout
Latitude
Unknown
Longitude
Unknown
Altitude
Unknown
Speed
Unknown
Apparent Right ascension
Unknown
Apparent Declination
Unknown
Sunlit
N/A
Visualization observer readout
Local Sidereal Time
11:37:14
Azimuth
Unknown
Elevation
Unknown
Doppler factor
Unknown
Orbital elements
Apogee altitude
649.118 km
Perigee altitude
625.323 km
Semi-major axis
7,015.358 km
Eccentricity
0.0017
Inclination
86.3102°
RAAN
311.8309°
Arg. of periapsis
164.6796°
True anomaly
8.95291°
Mean anomaly
8.9227°
Eccentric anomaly
8.9378°
Mean motion
3.69376 °/min
Orbital period
97.46 mins
BSTAR
0.001112
Loading maneuver chart data...
Computing Atmospheric mass density...
Loading historical data...
Loading historical data...
Loading historical data...
Loading historical data...
Loading historical data...
Loading historical data...
Loading historical data...

Documentation

Showing up to 5 results
|